Location: Climax
(33.2048°N, 96.4497°W)
Time: 06:57:30
(UTC+00:00)

Lacrosse 5 rocket - Pass Details

Date: 08 December 2021
Orbit: 457 x 634 km, 57.0° (Epoch: 17 January)

Event Time Altitude Azimuth Distance (km) Brightness Sun altitude
Rises 23:43:04 0° 339° (NNW) 2,629 4.8 -5.5°
Reaches altitude 10° 23:46:04 10° 4° (N) 1,780 3.7 -6.0°
Maximum altitude 23:48:22 15° 40° (NE) 1,532 3.1 -6.5°
Drops below altitude 10° 23:50:44 10° 74° (ENE) 1,840 3.3 -6.9°
Enters shadow 23:51:26 - 82° (E) 2,013 3.6 -7.1°
